Home > Time Zones > World Clock > Weather > Peru > Cuzco > Past weeks

Flag for Peru Weather past 2 weeks in Cuzco, Cusco, Peru

Now
50 °F

Passing clouds.


Feels Like: 50 °F
Forecast: 39 / 64 °F
Wind: No wind

Location: Cuzco Airport

Current Time: Aug 28, 2015 at 8:24:31 AM

Latest Report: Aug 28, 2015 at 8:00 AM


Visibility: 5 mi

Pressure: 30.60 "Hg (20.35 "Hg at 3379m altitude)

Humidity: 58%

Dew point: 36 °F

Location of CuzcoLocation

Historic Weather in Cuzco — Graph

°F

Cuzco temperature yesterday

Maximum temperature yesterday: 72 °F (at 2:00 PM)
Minimum temperature yesterday: 39 °F (at 12:00 AM)
Average temperature yesterday: 55 °F

Past Weeks' High & Low Weather Summary

 TemperatureHumidityPressure
High75 °F (Aug 23, 2:00 PM)100% (Aug 18, 7:00 AM)30.63 "Hg (Aug 18, 7:00 AM)
Low34 °F (Aug 15, 6:00 AM)12% (Aug 26, 4:00 PM)30.30 "Hg (Aug 22, 3:00 PM)
Average53 °F54%30.49 "Hg
* Reported Aug 13 7:00 AM — Aug 28 7:00 AM, Cuzco, Weather by CustomWeather, © 2015

Note: Actual official high and low records may vary slightly from our data, if they occured in-between our weather recording intervals... More about our weather records

Advertising

Cuzco weather history for previous 24 hours

 ConditionsComfort  
Time TempWeatherWind HumidityBarometerVisibility
7:00 AM
Fri, Aug 28
45 °FPassing clouds.No wind66%30.60 "HgN/A
6:30 AM41 °FScattered clouds.No wind76%30.60 "HgN/A
6:00 AM41 °FPassing clouds.No wind76%30.57 "HgN/A
5:00 AM43 °FPartly cloudy.5 mph71%30.54 "HgN/A
4:00 AM43 °FPassing clouds.2 mph71%30.54 "HgN/A
3:00 AM45 °FPassing clouds.No wind66%30.54 "HgN/A
2:00 AM45 °FPassing clouds.No wind66%30.57 "HgN/A
11:00 PM
Thu, Aug 27
46 °FPassing clouds.6 mph62%30.60 "HgN/A
10:00 PM50 °FClear.No wind58%30.57 "HgN/A
9:00 PM50 °FClear.6 mph58%30.54 "HgN/A
8:00 PM52 °FClear.5 mph54%30.51 "HgN/A
7:00 PM55 °FClear.2 mph51%30.45 "HgN/A
6:00 PM57 °FClear.5 mph44%30.39 "HgN/A
5:00 PM61 °FPassing clouds.15 mph42%30.39 "HgN/A
4:00 PM68 °FPassing clouds.12 mph28%30.36 "HgN/A
3:00 PM68 °FScattered clouds.12 mph28%30.36 "HgN/A
2:00 PM72 °FScattered clouds.5 mph16%30.36 "HgN/A
1:00 PM70 °FScattered clouds.7 mph13%30.42 "HgN/A
12:00 PM70 °FScattered clouds.5 mph27%30.45 "HgN/A
11:00 AM66 °FScattered clouds.3 mph30%30.51 "HgN/A
10:00 AM61 °FScattered clouds.3 mph39%30.54 "HgN/A
9:00 AM57 °FScattered clouds.2 mph51%30.54 "HgN/A
8:00 AM50 °FScattered clouds.5 mph62%30.54 "HgN/A
Weather by CustomWeather, © 2015

See weather overviewHow to use our weather pages